Weather History for KBAC - August, 2013

Change the Weather History Date:

Saturday, August 31, 2013

  Actual Average (KJMS) Record (KJMS)
Temperature  
Mean Temperature 72 °F 64 °F  
Max Temperature 82 °F 77 °F 100 °F (1953)
Min Temperature 62 °F 51 °F 36 °F (1909)
Degree Days  
Heating Degree Days 0 3  
Month to date heating degree days 46  
Since 1 June heating degree days 163  
Since 1 July heating degree days 66  
Cooling Degree Days 7 3  
Month to date cooling degree days 143  
Year to date cooling degree days 415  
Since 1 June cooling degree days 395  
Growing Degree Days 22 (Base 50)    
Moisture  
Dew Point 62 °F    
Average Humidity 72    
Maximum Humidity 100    
Minimum Humidity 39    
Precipitation  
Precipitation 0.00 in 0.07 in 3.97 in (1997)
Month to date precipitation 2.10  
Year to date precipitation 14.19  
Sea Level Pressure  
Sea Level Pressure 29.80 in    
Wind  
Wind Speed 10 mph (West)    
Max Wind Speed 24 mph    
Max Gust Speed 36 mph    
Visibility 10 miles    
Events Rain    
T = Trace of Precipitation, MM = Missing Value Source: NWS Daily Summary

Daily Weather History Graph

Daily Weather History Graph

Search for Another Location

Airport or City:

Trip Planner

Search our weather history database for the weather conditions in past years. The results will help you decide how hot, cold, wet, or windy it might be!

Date:

Astronomy

Aug. 31, 2013 Rise Set
Actual Time 6:50 AM CDT 8:12 PM CDT
Civil Twilight 6:19 AM CDT 8:44 PM CDT
Nautical Twilight 5:40 AM CDT 9:22 PM CDT
Astronomical Twilight 4:59 AM CDT 10:03 PM CDT
Moon 2:09 AM CDT (8/31) 5:22 PM CDT (8/31)
Length of Visible Light 14h 25m
Length of Day
13h 22m
Waning Crescent, 21% of the Moon is Illuminated
Aug 31
Waning Crescent
Sep 5
New
Sep 12
First Quarter
Sep 19
Full
Sep 26
Last Quarter

Hourly Weather History & Observations

Time (CDT) Temp. Heat Index Dew Point Humidity Pressure Visibility Wind Dir Wind Speed Gust Speed Precip Events Conditions
12:15 AM 69.8 °F - 68.0 °F 94% 29.88 in 10.0 mi SSW 8.1 mph - N/A Rain Light Rain
12:35 AM 69.8 °F - 68.0 °F 94% 29.86 in 10.0 mi South 11.5 mph - N/A   Mostly Cloudy
12:55 AM 69.8 °F - 68.0 °F 94% 29.86 in 10.0 mi SSW 13.8 mph - N/A Rain Light Rain
1:15 AM 69.8 °F - 66.2 °F 88% 29.80 in 10.0 mi South 19.6 mph - N/A   Overcast
1:35 AM 73.4 °F - 62.6 °F 69% 29.75 in 10.0 mi SSW 24.2 mph 31.1 mph N/A Rain Light Rain
1:55 AM 77.0 °F - 55.4 °F 47% 29.77 in 10.0 mi SW 18.4 mph 35.7 mph N/A Rain Light Rain
2:15 AM 80.6 °F 80.3 °F 53.6 °F 39% 29.77 in 10.0 mi SW 13.8 mph 25.3 mph N/A Rain Light Rain
2:35 AM 75.2 °F - 59.0 °F 57% 29.80 in 10.0 mi NW 12.7 mph - N/A   Clear
2:55 AM 73.4 °F - 62.6 °F 69% 29.81 in 10.0 mi NW 6.9 mph - N/A   Clear
3:15 AM 68.0 °F - 64.4 °F 88% 29.81 in 10.0 mi WSW 8.1 mph - N/A   Clear
3:35 AM 68.0 °F - 64.4 °F 88% 29.81 in 10.0 mi WSW 5.8 mph - N/A   Clear
3:55 AM 64.4 °F - 64.4 °F 100% 29.80 in 10.0 mi WSW 6.9 mph - N/A   Clear
4:15 AM 68.0 °F - 60.8 °F 78% 29.80 in 10.0 mi WSW 5.8 mph - N/A   Clear
4:35 AM 69.8 °F - 60.8 °F 73% 29.81 in 10.0 mi SW 3.5 mph - N/A   Clear
4:55 AM 66.2 °F - 62.6 °F 88% 29.79 in 10.0 mi Calm Calm - N/A   Clear
5:15 AM 64.4 °F - 62.6 °F 94% 29.79 in 10.0 mi Calm Calm - N/A   Clear
5:35 AM 62.6 °F - 62.6 °F 100% 29.79 in 10.0 mi WSW 3.5 mph - N/A   Clear
5:55 AM 64.4 °F - 62.6 °F 94% 29.78 in 10.0 mi WSW 6.9 mph - N/A   Clear
6:15 AM 64.4 °F - 62.6 °F 94% 29.78 in 10.0 mi SW 6.9 mph - N/A   Clear
6:35 AM 64.4 °F - 62.6 °F 94% 29.78 in 10.0 mi Calm Calm - N/A   Clear
6:55 AM 62.6 °F - 62.6 °F 100% 29.78 in 10.0 mi WSW 4.6 mph - N/A   Clear
7:15 AM 62.6 °F - 62.6 °F 100% 29.78 in 10.0 mi South 5.8 mph - N/A   Clear
7:35 AM 64.4 °F - 64.4 °F 100% 29.78 in 10.0 mi Calm Calm - N/A   Clear
7:55 AM 66.2 °F - 64.4 °F 94% 29.78 in 10.0 mi South 6.9 mph - N/A   Clear
8:15 AM 66.2 °F - 64.4 °F 94% 29.79 in 10.0 mi South 6.9 mph - N/A   Clear
8:35 AM 68.0 °F - 64.4 °F 88% 29.79 in 10.0 mi South 5.8 mph - N/A   Clear
8:55 AM 69.8 °F - 62.6 °F 78% 29.79 in 10.0 mi SE 5.8 mph - N/A   Clear
9:15 AM 71.6 °F - 62.6 °F 73% 29.80 in 10.0 mi SSW 3.5 mph - N/A   Clear
9:35 AM 73.4 °F - 62.6 °F 69% 29.79 in 10.0 mi Calm Calm - N/A   Clear
9:55 AM 75.2 °F - 62.6 °F 65% 29.79 in 10.0 mi South 4.6 mph - N/A   Clear
10:15 AM 77.0 °F - 64.4 °F 65% 29.79 in 10.0 mi South 3.5 mph - N/A   Clear
10:35 AM 78.8 °F - 64.4 °F 61% 29.79 in 10.0 mi SE 3.5 mph - N/A   Clear
10:55 AM 80.6 °F 82.3 °F 64.4 °F 58% 29.78 in 10.0 mi South 4.6 mph - N/A   Clear
11:15 AM 82.4 °F 83.9 °F 64.4 °F 54% 29.77 in 10.0 mi SW 8.1 mph - N/A   Clear
11:35 AM 82.4 °F 83.9 °F 64.4 °F 54% 29.79 in 10.0 mi West 10.4 mph - N/A   Clear
11:55 AM 80.6 °F 82.7 °F 66.2 °F 61% 29.80 in 10.0 mi WNW 11.5 mph - N/A   Clear
12:15 PM 80.6 °F 82.7 °F 66.2 °F 61% 29.79 in 10.0 mi Calm Calm - N/A   Clear
12:35 PM 80.6 °F 83.2 °F 68.0 °F 65% 29.80 in 10.0 mi West 8.1 mph - N/A   Clear
12:55 PM 80.6 °F 83.2 °F 68.0 °F 65% 29.81 in 10.0 mi WNW 13.8 mph 18.4 mph N/A   Clear
1:15 PM 80.6 °F 83.2 °F 68.0 °F 65% 29.81 in 10.0 mi WNW 15.0 mph 18.4 mph N/A   Clear
1:35 PM 78.8 °F - 68.0 °F 69% 29.81 in 10.0 mi NW 11.5 mph - N/A   Clear
1:55 PM 77.0 °F - 66.2 °F 69% 29.81 in 10.0 mi WNW 10.4 mph - N/A   Clear
2:15 PM 77.0 °F - 68.0 °F 74% 29.80 in 10.0 mi NW 10.4 mph - N/A Rain Light Rain
2:35 PM 77.0 °F - 68.0 °F 74% 29.79 in 10.0 mi NNW 5.8 mph - N/A   Clear
2:55 PM 77.0 °F - 68.0 °F 74% 29.79 in 10.0 mi SSW 5.8 mph - N/A   Partly Cloudy
3:15 PM 78.8 °F - 66.2 °F 65% 29.78 in 10.0 mi SSW 6.9 mph - N/A   Partly Cloudy
3:35 PM 78.8 °F - 64.4 °F 61% 29.77 in 10.0 mi SSW 5.8 mph - N/A   Clear
3:55 PM 80.6 °F 81.8 °F 62.6 °F 54% 29.78 in 10.0 mi SW 9.2 mph - N/A   Clear
4:15 PM 82.4 °F 83.4 °F 62.6 °F 51% 29.77 in 10.0 mi West 11.5 mph - N/A   Clear
4:35 PM 82.4 °F 83.4 °F 62.6 °F 51% 29.77 in 10.0 mi West 17.3 mph 23.0 mph N/A   Clear
4:55 PM 82.4 °F 81.7 °F 55.4 °F 39% 29.77 in 10.0 mi WNW 16.1 mph - N/A   Clear
5:15 PM 82.4 °F 82.0 °F 57.2 °F 42% 29.77 in 10.0 mi WNW 16.1 mph 24.2 mph N/A   Clear
5:35 PM 80.6 °F 80.8 °F 57.2 °F 45% 29.77 in 10.0 mi WNW 17.3 mph 25.3 mph N/A   Clear
5:55 PM 80.6 °F 80.8 °F 57.2 °F 45% 29.77 in 10.0 mi WNW 23.0 mph 29.9 mph N/A   Clear
6:15 PM 80.6 °F 81.1 °F 59.0 °F 48% 29.78 in 10.0 mi NW 20.7 mph 25.3 mph N/A   Clear
6:35 PM 78.8 °F - 57.2 °F 47% 29.78 in 10.0 mi WNW 21.9 mph 29.9 mph N/A   Clear
6:55 PM 77.0 °F - 59.0 °F 54% 29.79 in 10.0 mi NW 20.7 mph 29.9 mph N/A   Clear
7:15 PM 77.0 °F - 59.0 °F 54% 29.80 in 10.0 mi NW 18.4 mph 24.2 mph N/A   Clear
7:35 PM 75.2 °F - 57.2 °F 53% 29.80 in 10.0 mi NW 17.3 mph 24.2 mph N/A   Clear
7:55 PM 73.4 °F - 57.2 °F 57% 29.81 in 10.0 mi NW 15.0 mph 21.9 mph N/A   Clear
8:15 PM 71.6 °F - 57.2 °F 60% 29.83 in 10.0 mi NW 11.5 mph - N/A   Clear
8:35 PM 71.6 °F - 57.2 °F 60% 29.84 in 10.0 mi NW 10.4 mph - N/A   Clear
8:55 PM 68.0 °F - 57.2 °F 68% 29.85 in 10.0 mi NW 9.2 mph - N/A   Clear
9:15 PM 66.2 °F - 57.2 °F 73% 29.86 in 10.0 mi WNW 8.1 mph - N/A   Clear
9:35 PM 64.4 °F - 59.0 °F 83% 29.86 in 10.0 mi NW 8.1 mph - N/A   Clear
9:55 PM 64.4 °F - 59.0 °F 83% 29.87 in 10.0 mi WNW 9.2 mph - N/A   Clear
10:15 PM 64.4 °F - 59.0 °F 83% 29.87 in 10.0 mi WNW 9.2 mph - N/A   Clear
10:35 PM 62.6 °F - 59.0 °F 88% 29.88 in 10.0 mi WNW 9.2 mph - N/A   Clear
10:55 PM 64.4 °F - 59.0 °F 83% 29.88 in 10.0 mi NW 10.4 mph - N/A   Clear
11:15 PM 64.4 °F - 59.0 °F 83% 29.88 in 10.0 mi WNW 9.2 mph - N/A   Clear
11:35 PM 62.6 °F - 59.0 °F 88% 29.88 in 10.0 mi NW 10.4 mph - N/A   Clear
11:55 PM 62.6 °F - 59.0 °F 88% 29.89 in 10.0 mi NW 9.2 mph - N/A   Clear